This is the latest recevied weather packets stored in our database for station/object K3RUP-1. If no packets are shown the sender has not sent any weather packets the latest 10 day(s).
| Time | Temp. | Humidity | Pressure | Rain* | Wind** | Luminosity | Snow |
|---|---|---|---|---|---|---|---|
| 1777841129 | 17.78° C | 33% | 1013.3 hPa | 0 mm | - | 359 W/m² | - |
| 1777840826 | 17.78° C | 32% | 1013.6 hPa | 0 mm | - | 423 W/m² | - |
| 1777840523 | 17.78° C | 32% | 1013.4 hPa | 0 mm | - | 419 W/m² | - |
| 1777840220 | 17.22° C | 32% | 1013.5 hPa | 0 mm | - | 469 W/m² | - |
| 1777839918 | 17.22° C | 32% | 1013.6 hPa | 0 mm | - | 488 W/m² | - |
| 1777839616 | 17.22° C | 34% | 1013.6 hPa | 0 mm | - | 63 W/m² | - |
| 1777839314 | 17.22° C | 35% | 1013.7 hPa | 0 mm | - | 356 W/m² | - |
| 1777839011 | 16.67° C | 34% | 1014 hPa | 0 mm | - | 544 W/m² | - |
| 1777838707 | 16.67° C | 33% | 1013.8 hPa | 0 mm | - | 544 W/m² | - |
| 1777838404 | 17.22° C | 35% | 1014 hPa | 0 mm | - | 524 W/m² | - |
| 1777838101 | 17.22° C | 34% | 1014 hPa | 0 mm | - | 518 W/m² | - |
| 1777837797 | 16.67° C | 35% | 1014.1 hPa | 0 mm | - | 607 W/m² | - |
| 1777837495 | 16.67° C | 33% | 1014.1 hPa | 0 mm | - | 587 W/m² | - |
| 1777837189 | 17.22° C | 32% | 1014.2 hPa | 0 mm | - | 571 W/m² | - |
| 1777836886 | 17.22° C | 35% | 1014.2 hPa | 0 mm | - | 560 W/m² | - |
| 1777836581 | 16.67° C | 35% | 1014 hPa | 0 mm | - | 305 W/m² | - |
| 1777836278 | 17.22° C | 35% | 1014.5 hPa | 0 mm | - | 584 W/m² | - |
| 1777835973 | 16.67° C | 35% | 1014.4 hPa | 0 mm | - | 613 W/m² | - |
| 1777835671 | 16.11° C | 34% | 1014.4 hPa | 0 mm | - | 596 W/m² | - |
| 1777835367 | 16.11° C | 36% | 1014.6 hPa | 0 mm | - | 665 W/m² | - |
| 1777835065 | 16.11° C | 34% | 1014.7 hPa | 0 mm | - | 189 W/m² | - |
| 1777834762 | 16.11° C | 37% | 1014.7 hPa | 0 mm | - | 626 W/m² | - |
| 1777834458 | 16.67° C | 34% | 1014.6 hPa | 0 mm | - | 630 W/m² | - |
| 1777834157 | 16.67° C | 36% | 1014.5 hPa | 0 mm | - | 694 W/m² | - |
| 1777833854 | 17.22° C | 34% | 1014.8 hPa | 0 mm | - | 689 W/m² | - |
* Rain latest hour (hover to see other rain measurements)
** Current wind speed in m/s (hover to see current wind gust speed)